Погода в Мацумото

Япония     36°13′56″N   137°58′01″E
темп.,
°C
ветер,
м/с
пор.,
м/с
влажн.,
%
обл.,
%
осадки,
мм/ч
давл.,
гПа
погр.,
м
28 июля, ср
ср2800:00+18ю119874 0.0 100244
03:00+18ююз119571 0.0 100214
06:00+18ююз119361 0.0 1003114
09:00+24ссв117046 0.1 1002841
12:00+29с115021 0.4 10001652
15:00+25ююв017190 2.1 999276
18:00+22с11899 3.0 100118
21:00+19ююз119476 3.0 100412
29 июля, чт
чт2900:00+19ю119573 0.1 100335
03:00+17ю22965 0.1 100337
06:00+17ю12958 0.0 100467
09:00+25юв016524 0.0 1003935
12:00+30ссв12412 0.1 10002170
15:00+30с343971 0.1 9992361
18:00+20юз1191100 3.8 100217
21:00+18ю219612 9.7 100427
30 июля, пт
пт3000:00+17ю229699 0.1 100334
03:00+17ююв119661 0.2 100327
06:00+18ююв119449 0.0 100462
09:00+24св116816 0.0 1003744
12:00+29ссв224931 0.2 10001864
15:00+25в237730 1.4 1001419
18:00+22св119184 3.1 100228
21:00+19вюв1197100 5.6 100420
31 июля, сб
сб3100:00+18ююв119722 0.1 100421
03:00+17ю11986 0.1 100319
06:00+18ююв11965 0.0 100456
09:00+24ссв116922 0.0 1003754
12:00+29ссв22484 0.0 10011624
15:00+30с22410 0.0 9992004
18:00+24ссв23760 0.3 1000117
21:00+19ю11920 0.4 100311
1 августа, вс
вс100:00+18ю11950 0.0 100320
03:00+17ю1195100 0.0 100219
06:00+18ю1191100 0.0 100347
09:00+23в0173100 0.0 1003441
12:00+28ссв2151100 0.0 10011275
15:00+27св2259100 0.2 10021222
18:00+21св1294100 2.7 100465
21:00+20св1298100 2.8 100770